Year,Month,Day,Hour,Minute,Value (Times are PST for temperature in C)
2018,10,17,00,00,8.30
2018,10,17,00,01,8.30
2018,10,17,00,02,8.30
2018,10,17,00,03,8.30
2018,10,17,00,04,8.30
2018,10,17,00,05,8.30
2018,10,17,00,06,8.30
2018,10,17,00,07,8.30
2018,10,17,00,08,8.30
2018,10,17,00,09,8.30
2018,10,17,00,10,8.30
2018,10,17,00,11,8.30
2018,10,17,00,12,8.30
2018,10,17,00,13,8.30
2018,10,17,00,14,8.20
2018,10,17,00,15,8.20
2018,10,17,00,16,8.20
2018,10,17,00,17,8.20
2018,10,17,00,18,8.20
2018,10,17,00,19,8.10
2018,10,17,00,20,8.10
2018,10,17,00,21,8.10
2018,10,17,00,22,8.10
2018,10,17,00,23,8.10
2018,10,17,00,24,8.10
2018,10,17,00,25,8.10
2018,10,17,00,26,8.10
2018,10,17,00,27,8.10
2018,10,17,00,28,8.10
2018,10,17,00,29,8.00
2018,10,17,00,30,8.00
2018,10,17,00,31,8.00
2018,10,17,00,32,8.00
2018,10,17,00,33,8.00
2018,10,17,00,34,7.90
2018,10,17,00,35,7.90
2018,10,17,00,36,7.90
2018,10,17,00,37,7.90
2018,10,17,00,38,7.90
2018,10,17,00,39,7.90
2018,10,17,00,40,7.90
2018,10,17,00,41,7.90
2018,10,17,00,42,7.90
2018,10,17,00,43,7.90
2018,10,17,00,44,7.80
2018,10,17,00,45,7.80
2018,10,17,00,46,7.80
2018,10,17,00,47,7.80
2018,10,17,00,48,7.80
2018,10,17,00,49,7.80
2018,10,17,00,50,7.80
2018,10,17,00,51,7.80
2018,10,17,00,52,7.80
2018,10,17,00,53,7.80
2018,10,17,00,54,7.80
2018,10,17,00,55,7.80
2018,10,17,00,56,7.80
2018,10,17,00,57,7.70
2018,10,17,00,58,7.70
2018,10,17,00,59,7.70
2018,10,17,01,00,7.70
2018,10,17,01,01,7.60
2018,10,17,01,02,7.60
2018,10,17,01,03,7.60
2018,10,17,01,04,7.60
2018,10,17,01,05,7.60
2018,10,17,01,06,7.60
2018,10,17,01,07,7.70
2018,10,17,01,08,7.70
2018,10,17,01,09,7.70
2018,10,17,01,10,7.70
2018,10,17,01,11,7.60
2018,10,17,01,12,7.60
2018,10,17,01,13,7.60
2018,10,17,01,14,7.60
2018,10,17,01,15,7.60
2018,10,17,01,16,7.60
2018,10,17,01,17,7.60
2018,10,17,01,18,7.60
2018,10,17,01,19,7.60
2018,10,17,01,20,7.60
2018,10,17,01,21,7.60
2018,10,17,01,22,7.60
2018,10,17,01,23,7.60
2018,10,17,01,24,7.50
2018,10,17,01,25,7.50
2018,10,17,01,26,7.50
2018,10,17,01,27,7.50
2018,10,17,01,28,7.50
2018,10,17,01,29,7.40
2018,10,17,01,30,7.40
2018,10,17,01,31,7.40
2018,10,17,01,32,7.40
2018,10,17,01,33,7.40
2018,10,17,01,34,7.40
2018,10,17,01,35,7.30
2018,10,17,01,36,7.30
2018,10,17,01,37,7.30
2018,10,17,01,38,7.30
2018,10,17,01,39,7.40
2018,10,17,01,40,7.30
2018,10,17,01,41,7.30
2018,10,17,01,42,7.30
2018,10,17,01,43,7.30
2018,10,17,01,44,7.30
2018,10,17,01,45,7.30
2018,10,17,01,46,7.20
2018,10,17,01,47,7.20
2018,10,17,01,48,7.20
2018,10,17,01,49,7.10
2018,10,17,01,50,7.10
2018,10,17,01,51,7.10
2018,10,17,01,52,7.00
2018,10,17,01,53,7.00
2018,10,17,01,54,7.00
2018,10,17,01,55,7.00
2018,10,17,01,56,7.10
2018,10,17,01,57,7.10
2018,10,17,01,58,7.10
2018,10,17,01,59,7.10
2018,10,17,02,00,7.10
2018,10,17,02,01,7.10
2018,10,17,02,02,7.10
2018,10,17,02,03,7.10
2018,10,17,02,04,7.10
2018,10,17,02,05,7.10
2018,10,17,02,06,7.10
2018,10,17,02,07,7.10
2018,10,17,02,08,7.10
2018,10,17,02,09,7.00
2018,10,17,02,10,7.00
2018,10,17,02,11,7.00
2018,10,17,02,12,7.00
2018,10,17,02,13,7.00
2018,10,17,02,14,7.00
2018,10,17,02,15,7.00
2018,10,17,02,16,7.00
2018,10,17,02,17,7.00
2018,10,17,02,18,7.00
2018,10,17,02,19,7.00
2018,10,17,02,20,6.90
2018,10,17,02,21,6.90
2018,10,17,02,22,6.90
2018,10,17,02,23,6.90
2018,10,17,02,24,6.90
2018,10,17,02,25,6.90
2018,10,17,02,26,6.90
2018,10,17,02,27,6.80
2018,10,17,02,28,6.80
2018,10,17,02,29,6.80
2018,10,17,02,30,6.80
2018,10,17,02,31,6.80
2018,10,17,02,32,6.80
2018,10,17,02,33,6.80
2018,10,17,02,34,6.80
2018,10,17,02,35,6.80
2018,10,17,02,36,6.80
2018,10,17,02,37,6.80
2018,10,17,02,38,6.70
2018,10,17,02,39,6.70
2018,10,17,02,40,6.70
2018,10,17,02,41,6.60
2018,10,17,02,42,6.60
2018,10,17,02,43,6.60
2018,10,17,02,44,6.60
2018,10,17,02,45,6.60
2018,10,17,02,46,6.60
2018,10,17,02,47,6.60
2018,10,17,02,48,6.60
2018,10,17,02,49,6.60
2018,10,17,02,50,6.60
2018,10,17,02,51,6.60
2018,10,17,02,52,6.60
2018,10,17,02,53,6.60
2018,10,17,02,54,6.60
2018,10,17,02,55,6.60
2018,10,17,02,56,6.60
2018,10,17,02,57,6.60
2018,10,17,02,58,6.60
2018,10,17,02,59,6.60
2018,10,17,03,00,6.60
2018,10,17,03,01,6.50
2018,10,17,03,02,6.50
2018,10,17,03,03,6.50
2018,10,17,03,04,6.50
2018,10,17,03,05,6.50
2018,10,17,03,06,6.50
2018,10,17,03,07,6.50
2018,10,17,03,08,6.50
2018,10,17,03,09,6.50
2018,10,17,03,10,6.50
2018,10,17,03,11,6.50
2018,10,17,03,12,6.50
2018,10,17,03,13,6.50
2018,10,17,03,14,6.50
2018,10,17,03,15,6.40
2018,10,17,03,16,6.40
2018,10,17,03,17,6.40
2018,10,17,03,18,6.50
2018,10,17,03,19,6.50
2018,10,17,03,20,6.50
2018,10,17,03,21,6.50
2018,10,17,03,22,6.50
2018,10,17,03,23,6.40
2018,10,17,03,24,6.40
2018,10,17,03,25,6.40
2018,10,17,03,26,6.40
2018,10,17,03,27,6.40
2018,10,17,03,28,6.30
2018,10,17,03,29,6.30
2018,10,17,03,30,6.30
2018,10,17,03,31,6.30
2018,10,17,03,32,6.30
2018,10,17,03,33,6.30
2018,10,17,03,34,6.30
2018,10,17,03,35,6.30
2018,10,17,03,36,6.30
2018,10,17,03,37,6.30
2018,10,17,03,38,6.30
2018,10,17,03,39,6.30
2018,10,17,03,40,6.30
2018,10,17,03,41,6.30
2018,10,17,03,42,6.20
2018,10,17,03,43,6.20
2018,10,17,03,44,6.20
2018,10,17,03,45,6.20
2018,10,17,03,46,6.20
2018,10,17,03,47,6.20
2018,10,17,03,48,6.20
2018,10,17,03,49,6.20
2018,10,17,03,50,6.20
2018,10,17,03,51,6.20
2018,10,17,03,52,6.20
2018,10,17,03,53,6.20
2018,10,17,03,54,6.20
2018,10,17,03,55,6.20
2018,10,17,03,56,6.20
2018,10,17,03,57,6.30
2018,10,17,03,58,6.30
2018,10,17,03,59,6.30
2018,10,17,04,00,6.30
2018,10,17,04,01,6.30
2018,10,17,04,02,6.30
2018,10,17,04,03,6.30
2018,10,17,04,04,6.30
2018,10,17,04,05,6.30
2018,10,17,04,06,6.30
2018,10,17,04,07,6.30
2018,10,17,04,08,6.30
2018,10,17,04,09,6.30
2018,10,17,04,10,6.30
2018,10,17,04,11,6.30
2018,10,17,04,12,6.30
2018,10,17,04,13,6.30
2018,10,17,04,14,6.20
2018,10,17,04,15,6.20
2018,10,17,04,16,6.20
2018,10,17,04,17,6.10
2018,10,17,04,18,6.10
2018,10,17,04,19,6.10
2018,10,17,04,20,6.10
2018,10,17,04,21,6.20
2018,10,17,04,22,6.20
2018,10,17,04,23,6.20
2018,10,17,04,24,6.20
2018,10,17,04,25,6.20
2018,10,17,04,26,6.20
2018,10,17,04,27,6.20
2018,10,17,04,28,6.20
2018,10,17,04,29,6.20
2018,10,17,04,30,6.10
2018,10,17,04,31,6.20
2018,10,17,04,32,6.20
2018,10,17,04,33,6.20
2018,10,17,04,34,6.20
2018,10,17,04,35,6.20
2018,10,17,04,36,6.20
2018,10,17,04,37,6.20
2018,10,17,04,38,6.20
2018,10,17,04,39,6.20
2018,10,17,04,40,6.20
2018,10,17,04,41,6.20
2018,10,17,04,42,6.20
2018,10,17,04,43,6.20
2018,10,17,04,44,6.20
2018,10,17,04,45,6.20
2018,10,17,04,46,6.10
2018,10,17,04,47,6.10
2018,10,17,04,48,6.10
2018,10,17,04,49,6.10
2018,10,17,04,50,6.10
2018,10,17,04,51,6.10
2018,10,17,04,52,6.10
2018,10,17,04,53,6.10
2018,10,17,04,54,6.20
2018,10,17,04,55,6.20
2018,10,17,04,56,6.20
2018,10,17,04,57,6.20
2018,10,17,04,58,6.20
2018,10,17,04,59,6.20
2018,10,17,05,00,6.20
2018,10,17,05,01,6.20
2018,10,17,05,02,6.10
2018,10,17,05,03,6.10
2018,10,17,05,04,6.10
2018,10,17,05,05,6.00
2018,10,17,05,06,6.00
2018,10,17,05,07,6.00
2018,10,17,05,08,6.00
2018,10,17,05,09,5.90
2018,10,17,05,10,5.90
2018,10,17,05,11,5.90
2018,10,17,05,12,5.90
2018,10,17,05,13,5.90
2018,10,17,05,14,5.90
2018,10,17,05,15,5.90
2018,10,17,05,16,5.90
2018,10,17,05,17,5.90
2018,10,17,05,18,6.00
2018,10,17,05,19,6.00
2018,10,17,05,20,6.00
2018,10,17,05,21,6.10
2018,10,17,05,22,6.00
2018,10,17,05,23,6.10
2018,10,17,05,24,6.00
2018,10,17,05,25,6.00
2018,10,17,05,26,6.00
2018,10,17,05,27,5.90
2018,10,17,05,28,5.90
2018,10,17,05,29,5.90
2018,10,17,05,30,5.90
2018,10,17,05,31,5.90
2018,10,17,05,32,5.80
2018,10,17,05,33,5.80
2018,10,17,05,34,5.80
2018,10,17,05,35,5.80
2018,10,17,05,36,5.80
2018,10,17,05,37,5.80
2018,10,17,05,38,5.80
2018,10,17,05,39,5.80
2018,10,17,05,40,5.80
2018,10,17,05,41,5.80
2018,10,17,05,42,5.80
2018,10,17,05,43,5.80
2018,10,17,05,44,5.70
2018,10,17,05,45,5.70
2018,10,17,05,46,5.70
2018,10,17,05,47,5.70
2018,10,17,05,48,5.70
2018,10,17,05,49,5.80
2018,10,17,05,50,5.80
2018,10,17,05,51,5.80
2018,10,17,05,52,5.80
2018,10,17,05,53,5.80
2018,10,17,05,54,5.80
2018,10,17,05,55,5.80
2018,10,17,05,56,5.80
2018,10,17,05,57,5.70
2018,10,17,05,58,5.70
2018,10,17,05,59,5.70
2018,10,17,06,00,5.70
2018,10,17,06,01,5.70
2018,10,17,06,02,5.70
2018,10,17,06,03,5.70
2018,10,17,06,04,5.70
2018,10,17,06,05,5.70
2018,10,17,06,06,5.80
2018,10,17,06,07,5.80
2018,10,17,06,08,5.80
2018,10,17,06,09,5.70
2018,10,17,06,10,5.80
2018,10,17,06,11,5.80
2018,10,17,06,12,5.80
2018,10,17,06,13,5.80
2018,10,17,06,14,5.80
2018,10,17,06,15,5.80
2018,10,17,06,16,5.70
2018,10,17,06,17,5.70
2018,10,17,06,18,5.70
2018,10,17,06,19,5.60
2018,10,17,06,20,5.60
2018,10,17,06,21,5.60
2018,10,17,06,22,5.70
2018,10,17,06,23,5.70
2018,10,17,06,24,5.70
2018,10,17,06,25,5.70
2018,10,17,06,26,5.70
2018,10,17,06,27,5.70
2018,10,17,06,28,5.70
2018,10,17,06,29,5.70
2018,10,17,06,30,5.70
2018,10,17,06,31,5.60
2018,10,17,06,32,5.60
2018,10,17,06,33,5.60
2018,10,17,06,34,5.60
2018,10,17,06,35,5.70
2018,10,17,06,36,5.70
2018,10,17,06,37,5.70
2018,10,17,06,38,5.70
2018,10,17,06,39,5.70
2018,10,17,06,40,5.70
2018,10,17,06,41,5.70
2018,10,17,06,42,5.80
2018,10,17,06,43,5.80
2018,10,17,06,44,5.90
2018,10,17,06,45,5.90
2018,10,17,06,46,5.90
2018,10,17,06,47,5.90
2018,10,17,06,48,5.90
2018,10,17,06,49,5.90
2018,10,17,06,50,5.90
2018,10,17,06,51,5.90
2018,10,17,06,52,5.80
2018,10,17,06,53,5.80
2018,10,17,06,54,5.80
2018,10,17,06,55,5.70
2018,10,17,06,56,5.70
2018,10,17,06,57,5.70
2018,10,17,06,58,5.70
2018,10,17,06,59,5.80
2018,10,17,07,00,5.80
2018,10,17,07,01,5.80
2018,10,17,07,02,5.80
2018,10,17,07,03,5.70
2018,10,17,07,04,5.70
2018,10,17,07,05,5.70
2018,10,17,07,06,5.70
2018,10,17,07,07,5.70
2018,10,17,07,08,5.70
2018,10,17,07,09,5.80
2018,10,17,07,10,5.80
2018,10,17,07,11,5.70
2018,10,17,07,12,5.70
2018,10,17,07,13,5.70
2018,10,17,07,14,5.70
2018,10,17,07,15,5.70
2018,10,17,07,16,5.70
2018,10,17,07,17,5.70
2018,10,17,07,18,5.70
2018,10,17,07,19,5.70
2018,10,17,07,20,5.70
2018,10,17,07,21,5.70
2018,10,17,07,22,5.60
2018,10,17,07,23,5.60
2018,10,17,07,24,5.60
2018,10,17,07,25,5.60
2018,10,17,07,26,5.60
2018,10,17,07,27,5.60
2018,10,17,07,28,5.60
2018,10,17,07,29,5.50
2018,10,17,07,30,5.50
2018,10,17,07,31,5.50
2018,10,17,07,32,5.50
2018,10,17,07,33,5.60
2018,10,17,07,34,5.60
2018,10,17,07,35,5.60
2018,10,17,07,36,5.50
2018,10,17,07,37,5.40
2018,10,17,07,38,5.40
2018,10,17,07,39,5.40
2018,10,17,07,40,5.30
2018,10,17,07,41,5.30
2018,10,17,07,42,5.30
2018,10,17,07,43,5.30
2018,10,17,07,44,5.30
2018,10,17,07,45,5.30
2018,10,17,07,46,5.30
2018,10,17,07,47,5.30
2018,10,17,07,48,5.30
2018,10,17,07,49,5.40
2018,10,17,07,50,5.40
2018,10,17,07,51,5.40
2018,10,17,07,52,5.40
2018,10,17,07,53,5.40
2018,10,17,07,54,5.40
2018,10,17,07,55,5.40
2018,10,17,07,56,5.40
2018,10,17,07,57,5.40
2018,10,17,07,58,5.40
2018,10,17,07,59,5.40
2018,10,17,08,00,5.40
2018,10,17,08,01,5.40
2018,10,17,08,02,5.40
2018,10,17,08,03,5.40
2018,10,17,08,04,5.40
2018,10,17,08,05,5.40
2018,10,17,08,06,5.40
2018,10,17,08,07,5.40
2018,10,17,08,08,5.40
2018,10,17,08,09,5.30
2018,10,17,08,10,5.30
2018,10,17,08,11,5.30
2018,10,17,08,12,5.20
2018,10,17,08,13,5.20
2018,10,17,08,14,5.30
2018,10,17,08,15,5.30
2018,10,17,08,16,5.30
2018,10,17,08,17,5.30
2018,10,17,08,18,5.30
2018,10,17,08,19,5.40
2018,10,17,08,20,5.40
2018,10,17,08,21,5.40
2018,10,17,08,22,5.40
2018,10,17,08,23,5.40
2018,10,17,08,24,5.40
2018,10,17,08,25,5.40
2018,10,17,08,26,5.40
2018,10,17,08,27,5.40
2018,10,17,08,28,5.50
2018,10,17,08,29,5.50
2018,10,17,08,30,5.60
2018,10,17,08,31,5.70
2018,10,17,08,32,5.70
2018,10,17,08,33,5.70
2018,10,17,08,34,5.80
2018,10,17,08,35,5.80
2018,10,17,08,36,5.90
2018,10,17,08,37,5.90
2018,10,17,08,38,5.90
2018,10,17,08,39,6.00
2018,10,17,08,40,6.00
2018,10,17,08,41,6.10
2018,10,17,08,42,6.10
2018,10,17,08,43,6.10
2018,10,17,08,44,6.20
2018,10,17,08,45,6.20
2018,10,17,08,46,6.30
2018,10,17,08,47,6.30
2018,10,17,08,48,6.40
2018,10,17,08,49,6.50
2018,10,17,08,50,6.50
2018,10,17,08,51,6.60
2018,10,17,08,52,6.60
2018,10,17,08,53,6.70
2018,10,17,08,54,6.70
2018,10,17,08,55,6.80
2018,10,17,08,56,6.80
2018,10,17,08,57,6.80
2018,10,17,08,58,6.80
2018,10,17,08,59,6.80
2018,10,17,09,00,6.80
2018,10,17,09,01,6.80
2018,10,17,09,02,6.90
2018,10,17,09,03,6.90
2018,10,17,09,04,6.90
2018,10,17,09,05,7.00
2018,10,17,09,06,7.00
2018,10,17,09,07,7.10
2018,10,17,09,08,7.10
2018,10,17,09,09,7.20
2018,10,17,09,10,7.20
2018,10,17,09,11,7.30
2018,10,17,09,12,7.40
2018,10,17,09,13,7.40
2018,10,17,09,14,7.50
2018,10,17,09,15,7.50
2018,10,17,09,16,7.60
2018,10,17,09,17,7.70
2018,10,17,09,18,7.80
2018,10,17,09,19,7.90
2018,10,17,09,20,8.00
2018,10,17,09,21,8.00
2018,10,17,09,22,8.10
2018,10,17,09,23,8.20
2018,10,17,09,24,8.30
2018,10,17,09,25,8.40
2018,10,17,09,26,8.60
2018,10,17,09,27,8.70
2018,10,17,09,28,8.80
2018,10,17,09,29,8.90
2018,10,17,09,30,9.10
2018,10,17,09,31,9.10
2018,10,17,09,32,9.20
2018,10,17,09,33,9.30
2018,10,17,09,34,9.30
2018,10,17,09,35,9.30
2018,10,17,09,36,9.40
2018,10,17,09,37,9.40
2018,10,17,09,38,9.40
2018,10,17,09,39,9.40
2018,10,17,09,40,9.40
2018,10,17,09,41,9.40
2018,10,17,09,42,9.40
2018,10,17,09,43,9.40
2018,10,17,09,44,9.40
2018,10,17,09,45,9.50
2018,10,17,09,46,9.60
2018,10,17,09,47,9.70
2018,10,17,09,48,9.70
2018,10,17,09,49,9.80
2018,10,17,09,50,9.90
2018,10,17,09,51,10.00
2018,10,17,09,52,10.10
2018,10,17,09,53,10.20
2018,10,17,09,54,10.30
2018,10,17,09,55,10.50
2018,10,17,09,56,10.60
2018,10,17,09,57,10.70
2018,10,17,09,58,10.80
2018,10,17,09,59,10.80
2018,10,17,10,00,10.80
2018,10,17,10,01,10.90
2018,10,17,10,02,10.90
2018,10,17,10,03,11.00
2018,10,17,10,04,11.10
2018,10,17,10,05,11.20
2018,10,17,10,06,11.30
2018,10,17,10,07,11.30
2018,10,17,10,08,11.40
2018,10,17,10,09,11.50
2018,10,17,10,10,11.60
2018,10,17,10,11,11.70
2018,10,17,10,12,11.80
2018,10,17,10,13,11.90
2018,10,17,10,14,11.90
2018,10,17,10,15,12.00
2018,10,17,10,16,12.00
2018,10,17,10,17,12.10
2018,10,17,10,18,12.20
2018,10,17,10,19,12.20
2018,10,17,10,20,12.30
2018,10,17,10,21,12.40
2018,10,17,10,22,12.50
2018,10,17,10,23,12.50
2018,10,17,10,24,12.60
2018,10,17,10,25,12.70
2018,10,17,10,26,12.80
2018,10,17,10,27,12.90
2018,10,17,10,28,13.00
2018,10,17,10,29,13.00
2018,10,17,10,30,13.10
2018,10,17,10,31,13.20
2018,10,17,10,32,13.30
2018,10,17,10,33,13.40
2018,10,17,10,34,13.40
2018,10,17,10,35,13.50
2018,10,17,10,36,13.60
2018,10,17,10,37,13.60
2018,10,17,10,38,13.60
2018,10,17,10,39,13.60
2018,10,17,10,40,13.50
2018,10,17,10,41,13.50
2018,10,17,10,42,13.40
2018,10,17,10,43,13.40
2018,10,17,10,44,13.30
2018,10,17,10,45,13.30
2018,10,17,10,46,13.30
2018,10,17,10,47,13.20
2018,10,17,10,48,13.20
2018,10,17,10,49,13.30
2018,10,17,10,50,13.30
2018,10,17,10,51,13.30
2018,10,17,10,52,13.20
2018,10,17,10,53,13.20
2018,10,17,10,54,13.10
2018,10,17,10,55,13.10
2018,10,17,10,56,13.10
2018,10,17,10,57,13.10
2018,10,17,10,58,13.10
2018,10,17,10,59,13.10
2018,10,17,11,00,13.10
2018,10,17,11,01,13.20
2018,10,17,11,02,13.20
2018,10,17,11,03,13.30
2018,10,17,11,04,13.30
2018,10,17,11,05,13.40
2018,10,17,11,06,13.40
2018,10,17,11,07,13.50
2018,10,17,11,08,13.60
2018,10,17,11,09,13.60
2018,10,17,11,10,13.70
2018,10,17,11,11,13.70
2018,10,17,11,12,13.80
2018,10,17,11,13,13.80
2018,10,17,11,14,13.90
2018,10,17,11,15,14.10
2018,10,17,11,16,14.10
2018,10,17,11,17,14.20
2018,10,17,11,18,14.30
2018,10,17,11,19,14.40
2018,10,17,11,20,14.50
2018,10,17,11,21,14.50
2018,10,17,11,22,14.60
2018,10,17,11,23,14.70
2018,10,17,11,24,14.80
2018,10,17,11,25,14.90
2018,10,17,11,26,15.00
2018,10,17,11,27,15.10
2018,10,17,11,28,15.20
2018,10,17,11,29,15.20
2018,10,17,11,30,15.30
2018,10,17,11,31,15.50
2018,10,17,11,32,15.60
2018,10,17,11,33,15.70
2018,10,17,11,34,15.70
2018,10,17,11,35,15.70
2018,10,17,11,36,15.80
2018,10,17,11,37,15.80
2018,10,17,11,38,15.90
2018,10,17,11,39,16.00
2018,10,17,11,40,16.10
2018,10,17,11,41,16.20
2018,10,17,11,42,16.30
2018,10,17,11,43,16.40
2018,10,17,11,44,16.50
2018,10,17,11,45,16.60
2018,10,17,11,46,16.70
2018,10,17,11,47,16.80
2018,10,17,11,48,16.80
2018,10,17,11,49,16.90
2018,10,17,11,50,17.00
2018,10,17,11,51,17.00
2018,10,17,11,52,17.00
2018,10,17,11,53,17.00
2018,10,17,11,54,16.90
2018,10,17,11,55,16.90
2018,10,17,11,56,16.90
2018,10,17,11,57,16.90
2018,10,17,11,58,16.90
2018,10,17,11,59,17.00
2018,10,17,12,00,17.00
2018,10,17,12,01,17.10
2018,10,17,12,02,17.10
2018,10,17,12,03,17.20
2018,10,17,12,04,17.30
2018,10,17,12,05,17.40
2018,10,17,12,06,17.50
2018,10,17,12,07,17.60
2018,10,17,12,08,17.70
2018,10,17,12,09,17.70
2018,10,17,12,10,17.80
2018,10,17,12,11,17.80
2018,10,17,12,12,17.80
2018,10,17,12,13,17.90
2018,10,17,12,14,18.00
2018,10,17,12,15,18.10
2018,10,17,12,16,18.10
2018,10,17,12,17,18.10
2018,10,17,12,18,18.10
2018,10,17,12,19,18.20
2018,10,17,12,20,18.20
2018,10,17,12,21,18.30
2018,10,17,12,22,18.30
2018,10,17,12,23,18.30
2018,10,17,12,24,18.40
2018,10,17,12,25,18.50
2018,10,17,12,26,18.60
2018,10,17,12,27,18.70
2018,10,17,12,28,18.80
2018,10,17,12,29,18.80
2018,10,17,12,30,18.80
2018,10,17,12,31,18.80
2018,10,17,12,32,18.80
2018,10,17,12,33,18.70
2018,10,17,12,34,18.70
2018,10,17,12,35,18.80
2018,10,17,12,36,18.80
2018,10,17,12,37,18.80
2018,10,17,12,38,18.80
2018,10,17,12,39,18.90
2018,10,17,12,40,18.90
2018,10,17,12,41,19.00
2018,10,17,12,42,19.10
2018,10,17,12,43,19.20
2018,10,17,12,44,19.30
2018,10,17,12,45,19.40
2018,10,17,12,46,19.40
2018,10,17,12,47,19.50
2018,10,17,12,48,19.50
2018,10,17,12,49,19.50
2018,10,17,12,50,19.40
2018,10,17,12,51,19.40
2018,10,17,12,52,19.40
2018,10,17,12,53,19.40
2018,10,17,12,54,19.50
2018,10,17,12,55,19.60
2018,10,17,12,56,19.60
2018,10,17,12,57,19.70
2018,10,17,12,58,19.70
2018,10,17,12,59,19.70
2018,10,17,13,00,19.70
2018,10,17,13,01,19.60
2018,10,17,13,02,19.50
2018,10,17,13,03,19.40
2018,10,17,13,04,19.30
2018,10,17,13,05,19.30
2018,10,17,13,06,19.20
2018,10,17,13,07,19.10
2018,10,17,13,08,19.00
2018,10,17,13,09,18.90
2018,10,17,13,10,18.90
2018,10,17,13,11,18.80
2018,10,17,13,12,18.80
2018,10,17,13,13,18.70
2018,10,17,13,14,18.70
2018,10,17,13,15,18.70
2018,10,17,13,16,18.60
2018,10,17,13,17,18.60
2018,10,17,13,18,18.60
2018,10,17,13,19,18.60
2018,10,17,13,20,18.60
2018,10,17,13,21,18.60
2018,10,17,13,22,18.60
2018,10,17,13,23,18.60
2018,10,17,13,24,18.60
2018,10,17,13,25,18.60
2018,10,17,13,26,18.70
2018,10,17,13,27,18.70
2018,10,17,13,28,18.80
2018,10,17,13,29,18.80
2018,10,17,13,30,18.90
2018,10,17,13,31,18.90
2018,10,17,13,32,18.90
2018,10,17,13,33,18.90
2018,10,17,13,34,19.00
2018,10,17,13,35,18.90
2018,10,17,13,36,18.90
2018,10,17,13,37,18.90
2018,10,17,13,38,18.80
2018,10,17,13,39,18.80
2018,10,17,13,40,18.70
2018,10,17,13,41,18.70
2018,10,17,13,42,18.70
2018,10,17,13,43,18.60
2018,10,17,13,44,18.60
2018,10,17,13,45,18.50
2018,10,17,13,46,18.50
2018,10,17,13,47,18.50
2018,10,17,13,48,18.60
2018,10,17,13,49,18.60
2018,10,17,13,50,18.60
2018,10,17,13,51,18.70
2018,10,17,13,52,18.80
2018,10,17,13,53,18.80
2018,10,17,13,54,18.90
2018,10,17,13,55,18.90
2018,10,17,13,56,19.00
2018,10,17,13,57,19.00
2018,10,17,13,58,19.10
2018,10,17,13,59,19.20
2018,10,17,14,00,19.20
2018,10,17,14,01,19.30
2018,10,17,14,02,19.30
2018,10,17,14,03,19.30
2018,10,17,14,04,19.30
2018,10,17,14,05,19.40
2018,10,17,14,06,19.40
2018,10,17,14,07,19.40
2018,10,17,14,08,19.50
2018,10,17,14,09,19.50
2018,10,17,14,10,19.50
2018,10,17,14,11,19.50
2018,10,17,14,12,19.50
2018,10,17,14,13,19.50
2018,10,17,14,14,19.50
2018,10,17,14,15,19.50
2018,10,17,14,16,19.50
2018,10,17,14,17,19.50
2018,10,17,14,18,19.50
2018,10,17,14,19,19.50
2018,10,17,14,20,19.60
2018,10,17,14,21,19.60
2018,10,17,14,22,19.60
2018,10,17,14,23,19.60
2018,10,17,14,24,19.60
2018,10,17,14,25,19.70
2018,10,17,14,26,19.70
2018,10,17,14,27,19.60
2018,10,17,14,28,19.60
2018,10,17,14,29,19.50
2018,10,17,14,30,19.50
2018,10,17,14,31,19.40
2018,10,17,14,32,19.30
2018,10,17,14,33,19.30
2018,10,17,14,34,19.30
2018,10,17,14,35,19.20
2018,10,17,14,36,19.20
2018,10,17,14,37,19.20
2018,10,17,14,38,19.20
2018,10,17,14,39,19.20
2018,10,17,14,40,19.20
2018,10,17,14,41,19.20
2018,10,17,14,42,19.10
2018,10,17,14,43,19.10
2018,10,17,14,44,19.10
2018,10,17,14,45,19.10
2018,10,17,14,46,19.20
2018,10,17,14,47,19.20
2018,10,17,14,48,19.20
2018,10,17,14,49,19.20
2018,10,17,14,50,19.20
2018,10,17,14,51,19.10
2018,10,17,14,52,19.10
2018,10,17,14,53,19.00
2018,10,17,14,54,18.90
2018,10,17,14,55,18.90
2018,10,17,14,56,18.90
2018,10,17,14,57,18.80
2018,10,17,14,58,18.90
2018,10,17,14,59,18.90
2018,10,17,15,00,18.90
2018,10,17,15,01,18.90
2018,10,17,15,02,18.90
2018,10,17,15,03,18.90
2018,10,17,15,04,19.00
2018,10,17,15,05,19.00
2018,10,17,15,06,19.10
2018,10,17,15,07,19.10
2018,10,17,15,08,19.20
2018,10,17,15,09,19.20
2018,10,17,15,10,19.20
2018,10,17,15,11,19.30
2018,10,17,15,12,19.30
2018,10,17,15,13,19.40
2018,10,17,15,14,19.40
2018,10,17,15,15,19.50
2018,10,17,15,16,19.50
2018,10,17,15,17,19.60
2018,10,17,15,18,19.60
2018,10,17,15,19,19.70
2018,10,17,15,20,19.70
2018,10,17,15,21,19.80
2018,10,17,15,22,19.80
2018,10,17,15,23,19.90
2018,10,17,15,24,19.90
2018,10,17,15,25,19.90
2018,10,17,15,26,19.90
2018,10,17,15,27,19.90
2018,10,17,15,28,20.00
2018,10,17,15,29,20.10
2018,10,17,15,30,20.20
2018,10,17,15,31,20.20
2018,10,17,15,32,20.30
2018,10,17,15,33,20.30
2018,10,17,15,34,20.30
2018,10,17,15,35,20.30
2018,10,17,15,36,20.30
2018,10,17,15,37,20.30
2018,10,17,15,38,20.30
2018,10,17,15,39,20.30
2018,10,17,15,40,20.20
2018,10,17,15,41,20.20
2018,10,17,15,42,20.10
2018,10,17,15,43,20.10
2018,10,17,15,44,20.10
2018,10,17,15,45,20.10
2018,10,17,15,46,20.10
2018,10,17,15,47,20.10
2018,10,17,15,48,20.00
2018,10,17,15,49,20.10
2018,10,17,15,50,20.10
2018,10,17,15,51,20.00
2018,10,17,15,52,20.00
2018,10,17,15,53,19.90
2018,10,17,15,54,19.80
2018,10,17,15,55,19.80
2018,10,17,15,56,19.80
2018,10,17,15,57,19.80
2018,10,17,15,58,19.80
2018,10,17,15,59,19.80
2018,10,17,16,00,19.80
2018,10,17,16,01,19.70
2018,10,17,16,02,19.70
2018,10,17,16,03,19.70
2018,10,17,16,04,19.70
2018,10,17,16,05,19.70
2018,10,17,16,06,19.60
2018,10,17,16,07,19.60
2018,10,17,16,08,19.50
2018,10,17,16,09,19.40
2018,10,17,16,10,19.40
2018,10,17,16,11,19.40
2018,10,17,16,12,19.40
2018,10,17,16,13,19.40
2018,10,17,16,14,19.50
2018,10,17,16,15,19.50
2018,10,17,16,16,19.50
2018,10,17,16,17,19.50
2018,10,17,16,18,19.60
2018,10,17,16,19,19.60
2018,10,17,16,20,19.60
2018,10,17,16,21,19.50
2018,10,17,16,22,19.40
2018,10,17,16,23,19.30
2018,10,17,16,24,19.30
2018,10,17,16,25,19.30
2018,10,17,16,26,19.30
2018,10,17,16,27,19.20
2018,10,17,16,28,19.20
2018,10,17,16,29,19.20
2018,10,17,16,30,19.20
2018,10,17,16,31,19.20
2018,10,17,16,32,19.20
2018,10,17,16,33,19.20
2018,10,17,16,34,19.30
2018,10,17,16,35,19.30
2018,10,17,16,36,19.30
2018,10,17,16,37,19.30
2018,10,17,16,38,19.20
2018,10,17,16,39,19.20
2018,10,17,16,40,19.20
2018,10,17,16,41,19.20
2018,10,17,16,42,19.20
2018,10,17,16,43,19.10
2018,10,17,16,44,19.10
2018,10,17,16,45,19.10
2018,10,17,16,46,19.00
2018,10,17,16,47,18.90
2018,10,17,16,48,18.90
2018,10,17,16,49,18.80
2018,10,17,16,50,18.80
2018,10,17,16,51,18.70
2018,10,17,16,52,18.70
2018,10,17,16,53,18.70
2018,10,17,16,54,18.60
2018,10,17,16,55,18.60
2018,10,17,16,56,18.60
2018,10,17,16,57,18.50
2018,10,17,16,58,18.40
2018,10,17,16,59,18.40
2018,10,17,17,00,18.40
2018,10,17,17,01,18.40
2018,10,17,17,02,18.40
2018,10,17,17,03,18.40
2018,10,17,17,04,18.30
2018,10,17,17,05,18.30
2018,10,17,17,06,18.30
2018,10,17,17,07,18.20
2018,10,17,17,08,18.20
2018,10,17,17,09,18.10
2018,10,17,17,10,18.10
2018,10,17,17,11,18.10
2018,10,17,17,12,18.10
2018,10,17,17,13,18.10
2018,10,17,17,14,18.10
2018,10,17,17,15,18.10
2018,10,17,17,16,18.00
2018,10,17,17,17,17.90
2018,10,17,17,18,17.80
2018,10,17,17,19,17.70
2018,10,17,17,20,17.70
2018,10,17,17,21,17.60
2018,10,17,17,22,17.60
2018,10,17,17,23,17.60
2018,10,17,17,24,17.50
2018,10,17,17,25,17.50
2018,10,17,17,26,17.50
2018,10,17,17,27,17.50
2018,10,17,17,28,17.50
2018,10,17,17,29,17.40
2018,10,17,17,30,17.40
2018,10,17,17,31,17.40
2018,10,17,17,32,17.40
2018,10,17,17,33,17.30
2018,10,17,17,34,17.30
2018,10,17,17,35,17.30
2018,10,17,17,36,17.20
2018,10,17,17,37,17.20
2018,10,17,17,38,17.20
2018,10,17,17,39,17.10
2018,10,17,17,40,17.00
2018,10,17,17,41,17.00
2018,10,17,17,42,16.90
2018,10,17,17,43,16.80
2018,10,17,17,44,16.70
2018,10,17,17,45,16.60